Date String (YYYY-MM-DD hh:mm:ss) UTC,Instrument flags,absolute air pressure of the measurement (hPa),sample flow rate (lpm),inlet stack bypass flow (lpm),air temperature of the measurement (°C),ambient temperature measured by the external sensor (°C),aerosol sample conditioner tube jacket temperature (°C),OPC LED temperature (°C),internal box temperature (°C),relative humidity of the measurement (%),span deviation,mass concentration of particles derived from Lorenz-Mie calculation of OPC scattering (μg/m³),mass concentration of particles derived from Lorenz-Mie calculation of OPC scattering (μg/m³),mass concentration of particles derived from Lorenz-Mie calculation of OPC scattering (μg/m³)
DateTimeUTC,F1_M11,P_M11,Q1_M11,Q2_M11,T1_M11,T2_M11,T3_M11,T4_M11,T5_M11,U1_M11,ZSPAN_M11,X0_M11,X2_M11,X1_M11
2023-07-01 09:00:00,SystemResetWarning,0833.6,4.99,000.00,029.7,028.1,000.0,038.3,031.1,19.3,0000.0,0003.43,0002.74,0002.39
2023-07-01 09:01:00,SystemResetWarning,0833.7,5.00,000.00,029.7,028.1,000.0,038.3,031.1,19.2,0000.0,0003.48,0002.74,0002.38
2023-07-01 09:02:00,SystemResetWarning,0833.7,5.00,000.00,029.7,028.1,000.0,038.3,031.1,19.1,0000.0,0003.49,0002.73,0002.37
2023-07-01 09:03:00,SystemResetWarning,0833.7,5.00,000.00,029.7,028.1,000.0,038.3,031.1,19.1,0000.0,0003.42,0002.70,0002.34
2023-07-01 09:04:00,SystemResetWarning,0833.7,5.00,000.00,029.7,028.1,000.0,038.3,031.1,19.5,0000.0,0003.46,0002.69,0002.33
2023-07-01 09:05:00,SystemResetWarning,0833.7,5.00,000.00,029.7,028.1,000.0,038.3,031.1,19.6,0000.0,0003.54,0002.71,0002.33
2023-07-01 09:06:00,SystemResetWarning,0833.7,5.00,000.00,029.7,028.1,000.0,038.3,031.1,19.7,0000.0,0003.55,0002.71,0002.34
2023-07-01 09:07:00,SystemResetWarning,0833.7,5.00,000.00,029.7,028.1,000.0,038.3,031.1,19.4,0000.0,0003.56,0002.71,0002.33
2023-07-01 09:08:00,SystemResetWarning,0833.7,5.01,000.00,029.7,028.1,000.0,038.3,031.1,19.4,0000.0,0003.66,0002.71,0002.32
2023-07-01 09:09:00,SystemResetWarning,0833.7,5.00,000.00,029.7,028.1,000.0,038.3,031.1,19.5,0000.0,0003.59,0002.66,0002.31
2023-07-01 09:10:00,SystemResetWarning,0833.7,5.01,000.00,029.6,028.1,000.0,038.3,031.1,19.6,0000.0,0003.57,0002.65,0002.31
2023-07-01 09:11:00,SystemResetWarning,0833.7,5.01,000.00,029.6,028.1,000.0,038.3,031.0,19.2,0000.0,0003.52,0002.63,0002.29
2023-07-01 09:12:00,SystemResetWarning,0833.7,5.00,000.00,029.6,028.1,000.0,038.3,031.1,19.2,0000.0,0003.56,0002.62,0002.28
2023-07-01 09:13:00,SystemResetWarning,0833.7,5.00,000.00,029.6,028.1,000.0,038.2,031.0,19.1,0000.0,0003.55,0002.61,0002.28
2023-07-01 09:14:00,SystemResetWarning,0833.7,5.00,000.00,029.6,028.1,000.0,038.3,031.1,19.0,0000.0,0003.74,0002.60,0002.28
2023-07-01 09:15:00,SystemResetWarning,0833.7,5.00,000.00,029.6,028.1,000.0,038.3,031.1,18.9,0000.0,0003.84,0002.56,0002.27
2023-07-01 09:16:00,SystemResetWarning,0833.7,5.00,000.00,029.6,028.1,000.0,038.3,031.1,18.7,0000.0,0004.09,0002.53,0002.27
2023-07-01 09:17:00,SystemResetWarning,0833.7,5.00,000.00,029.6,028.1,000.0,038.3,031.1,18.6,0000.0,0004.10,0002.52,0002.26
2023-07-01 09:18:00,SystemResetWarning,0833.7,5.00,000.00,029.6,028.1,000.0,038.3,031.1,18.7,0000.0,0004.19,0002.54,0002.25
2023-07-01 09:19:00,SystemResetWarning,0833.6,4.99,000.00,029.6,028.1,000.0,038.3,031.1,18.8,0000.0,0004.16,0002.53,0002.25
2023-07-01 09:20:00,SystemResetWarning,0833.7,5.00,000.00,029.6,028.2,000.0,038.3,031.1,18.4,0000.0,0004.09,0002.54,0002.25
2023-07-01 09:21:00,SystemResetWarning,0833.7,5.00,000.00,029.6,028.2,000.0,038.3,031.1,18.5,0000.0,0004.13,0002.55,0002.23
2023-07-01 09:22:00,SystemResetWarning,0833.7,5.00,000.00,029.6,028.2,000.0,038.3,031.1,18.6,0000.0,0004.17,0002.56,0002.23
2023-07-01 09:23:00,SystemResetWarning,0833.7,5.00,000.00,029.6,028.2,000.0,038.2,031.1,18.6,0000.0,0004.12,0002.57,0002.24
2023-07-01 09:24:00,SystemResetWarning,0833.7,5.01,000.00,029.6,028.2,000.0,038.2,031.1,18.7,0000.0,0004.13,0002.59,0002.26
2023-07-01 09:25:00,SystemResetWarning,0833.7,5.00,000.00,029.6,028.2,000.0,038.2,031.1,18.8,0000.0,0004.02,0002.58,0002.26
2023-07-01 09:26:00,SystemResetWarning,0833.7,5.00,000.00,029.6,028.2,000.0,038.2,031.1,18.7,0000.0,0003.75,0002.59,0002.26
2023-07-01 09:27:00,SystemResetWarning,0833.7,5.00,000.00,029.6,028.2,000.0,038.2,031.1,18.8,0000.0,0003.49,0002.61,0002.26
2023-07-01 09:28:00,SystemResetWarning,0833.7,5.00,000.00,029.7,028.2,000.0,038.2,031.1,19.0,0000.0,0003.49,0002.65,0002.28
2023-07-01 09:29:00,SystemResetWarning,0833.7,5.00,000.00,029.7,028.2,000.0,038.2,031.1,19.0,0000.0,0003.57,0002.65,0002.28
2023-07-01 09:30:00,SystemResetWarning,0833.7,5.00,000.00,029.7,028.2,000.0,038.2,031.1,19.3,0000.0,0003.58,0002.65,0002.29
2023-07-01 09:31:00,SystemResetWarning,0833.7,5.01,000.00,029.7,028.2,000.0,038.2,031.1,19.4,0000.0,0003.59,0002.65,0002.29
2023-07-01 09:32:00,SystemResetWarning,0833.7,5.00,000.00,029.7,028.2,000.0,038.2,031.1,19.6,0000.0,0003.58,0002.66,0002.31
2023-07-01 09:33:00,SystemResetWarning,0833.7,5.00,000.00,029.7,028.2,000.0,038.2,031.1,19.3,0000.0,0003.90,0002.73,0002.34
2023-07-01 09:34:00,SystemResetWarning,0833.7,5.00,000.00,029.6,028.2,000.0,038.3,031.1,19.1,0000.0,0004.96,0002.78,0002.35
2023-07-01 09:35:00,SystemResetWarning,0833.7,5.00,000.00,029.6,028.2,000.0,038.3,031.0,18.6,0000.0,0004.87,0002.76,0002.35
2023-07-01 09:36:00,SystemResetWarning,0833.7,4.99,000.00,029.6,028.2,000.0,038.2,031.1,18.6,0000.0,0004.89,0002.79,0002.37
2023-07-01 09:37:00,SystemResetWarning,0833.7,4.99,000.00,029.6,028.2,000.0,038.3,031.1,18.8,0000.0,0005.03,0002.80,0002.37
2023-07-01 09:38:00,SystemResetWarning,0833.7,4.99,000.00,029.6,028.2,000.0,038.3,031.1,19.0,0000.0,0004.99,0002.77,0002.35
2023-07-01 09:39:00,SystemResetWarning,0833.7,4.99,000.00,029.6,028.2,000.0,038.2,031.1,18.8,0000.0,0004.95,0002.76,0002.35
2023-07-01 09:40:00,SystemResetWarning,0833.7,5.00,000.00,029.6,028.2,000.0,038.2,031.1,18.7,0000.0,0004.81,0002.75,0002.36
2023-07-01 09:41:00,SystemResetWarning,0833.7,5.01,000.00,029.6,028.2,000.0,038.2,031.1,18.4,0000.0,0004.81,0002.75,0002.35
2023-07-01 09:42:00,SystemResetWarning,0833.7,5.00,000.00,029.6,028.2,000.0,038.3,031.1,18.4,0000.0,0004.86,0002.77,0002.35
2023-07-01 09:43:00,SystemResetWarning,0833.7,5.00,000.00,029.6,028.2,000.0,038.3,031.1,18.4,0000.0,0004.93,0002.80,0002.36
2023-07-01 09:44:00,SystemResetWarning,0833.7,5.00,000.00,029.6,028.2,000.0,038.3,031.1,18.4,0000.0,0004.67,0002.74,0002.35
2023-07-01 09:45:00,SystemResetWarning,0833.7,4.99,000.00,029.6,028.2,000.0,038.3,031.1,18.3,0000.0,0003.59,0002.67,0002.33
2023-07-01 09:46:00,SystemResetWarning,0833.7,4.99,000.00,029.6,028.2,000.0,038.3,031.1,18.3,0000.0,0003.55,0002.65,0002.31
2023-07-01 09:47:00,SystemResetWarning,0833.7,4.99,000.00,029.6,028.2,000.0,038.2,031.1,18.2,0000.0,0003.45,0002.61,0002.31
2023-07-01 09:48:00,SystemResetWarning,0833.7,5.01,000.00,029.6,028.2,000.0,038.2,031.1,18.4,0000.0,0003.51,0002.66,0002.32
2023-07-01 09:49:00,SystemResetWarning,0833.7,5.01,000.00,029.6,028.2,000.0,038.3,031.1,18.5,0000.0,0003.81,0002.73,0002.34
2023-07-01 09:50:00,SystemResetWarning,0833.7,5.00,000.00,029.6,028.1,000.0,038.3,031.1,18.4,0000.0,0003.88,0002.74,0002.34
2023-07-01 09:51:00,SystemResetWarning,0833.7,4.99,000.00,029.6,028.2,000.0,038.3,031.1,18.5,0000.0,0003.89,0002.74,0002.34
2023-07-01 09:52:00,SystemResetWarning,0833.6,4.99,000.00,029.6,028.2,000.0,038.3,031.1,18.5,0000.0,0003.93,0002.74,0002.33
2023-07-01 09:53:00,SystemResetWarning,0833.7,5.00,000.00,029.6,028.2,000.0,038.3,031.1,18.3,0000.0,0003.88,0002.72,0002.34
2023-07-01 09:54:00,SystemResetWarning,0833.7,5.00,000.00,029.6,028.2,000.0,038.3,031.1,18.3,0000.0,0003.83,0002.70,0002.34
2023-07-01 09:55:00,SystemResetWarning,0833.7,5.01,000.00,029.6,028.2,000.0,038.2,031.1,18.3,0000.0,0003.75,0002.71,0002.34
2023-07-01 09:56:00,SystemResetWarning,0833.7,5.00,000.00,029.6,028.2,000.0,038.3,031.1,18.4,0000.0,0003.98,0002.76,0002.35
2023-07-01 09:57:00,SystemResetWarning,0833.7,4.99,000.00,029.6,028.2,000.0,038.3,031.1,18.3,0000.0,0004.03,0002.78,0002.35
2023-07-01 09:58:00,SystemResetWarning,0833.7,4.99,000.00,029.6,028.2,000.0,038.3,031.1,18.2,0000.0,0004.08,0002.79,0002.36
2023-07-01 09:59:00,SystemResetWarning,0833.7,4.99,000.00,029.6,028.2,000.0,038.2,031.0,18.2,0000.0,0004.02,0002.79,0002.35
